Regional Weather Roundup
Issued by NWS

Home | Current Version | Previous Version | Text Only | Print | Product List | Glossary On
Versions: 1 2 3 4 5 6 7 8 9 10 11 12 13 14 15 16 17 18 19 20 21 22 23 24 25 26 27 28 29 30 31 32 33 34 35 36 37 38 39 40 41 42 43 44 45 46 47 48 49 50
000
ASCA44 KEWX 011820
RWRMX

LATIN AMERICA AND CARIBBEAN REGIONAL WEATHER ROUNDUP
NATIONAL WEATHER SERVICE AUSTIN/SAN ANTONIO TX
1200 PM CST SUN FEB 01 2015

NOTE: "FAIR" INDICATED FEW OR NO CLOUDS BELOW 12,000 FEET WITH NO
SIGNIFICANT WEATHER AND/OR OBSTRUCTIONS TO VISIBILITY.

BAJA CALIFORNIA

CITY           SKY/WX    TMP DP  RH WIND       PRES   REMARKS
LORETO         MOSUNNY   66  54  63 CALM      29.99S
LA PAZ         MOSUNNY   68  54  60 NW10      30.02
MEXICALI       SUNNY     68  43  40 CALM      30.13
S.J. DEL CABO  SUNNY     75  43  31 CALM      29.97F
TIJUANA        SUNNY     63  45  51 E5        30.14R

NORTHWESTERN MEXICO

CITY           SKY/WX    TMP DP  RH WIND       PRES   REMARKS
CULIACAN       MOSUNNY   72  64  78 CALM      29.97
DURANGO        CLOUDY    50  46  87 CALM      30.15F
GUAYMAS        SUNNY     70  55  60 CALM      29.97
HERMOSILLO     SUNNY     70  50  49 N8        30.06R
CD. JUAREZ     MOSUNNY   52  43  71 NE5       30.07
LOS MOCHIS     SUNNY     66  54  63 NW7       29.99S
OBREGON        SUNNY     66  54  63 NW3       29.97

NORTHEASTERN MEXICO

CITY           SKY/WX    TMP DP  RH WIND       PRES   REMARKS
CHIHUAHUA      SUNNY     55  32  41 N10       30.12
MATAMOROS      PTSUNNY   73  64  73 S21       29.95
MONCLOVA       MOSUNNY   72  57  60 CALM      29.98
MONTERREY      PTSUNNY   70  59  68 N5        29.93F
NUEVO LAREDO   PTSUNNY   68  52  56 N5        29.97  FOG
PIEDRAS NEGRAS CLOUDY    59  50  72 NW7       30.00S FOG
REYNOSA        PTSUNNY   72  57  60 SE12      29.92
SALTILLO       CLOUDY    64  48  55 S10       30.12F
TORREON        PTSUNNY   59  50  72 NW10      30.12R
CD. VICTORIA   PTSUNNY   70  59  68 S7        29.95

WESTERN MEXICO

CITY           SKY/WX    TMP DP  RH WIND       PRES   REMARKS
AGUASCALIENTES CLOUDY    55  45  67 S12       30.23
COLIMA         CLOUDY    72  61  68 CALM      30.07F
DEL BAJIO      CLOUDY    61  43  51 S5        30.30S
GUADALAJARA    PTSUNNY   63  48  59 SE10      30.15
MANZANILLO     CLOUDY    81  75  83 N6        29.95F
MAZATLAN       CLOUDY    66  63  88 NE8       29.93F
P. VALLARTA    PTSUNNY   81  63  54 NW3       29.89F
URUAPAN        PTSUNNY   68  50  52 S9        30.21F
ZACATECAS      CLOUDY    52  41  66 SW29      30.20S

CENTRAL MEXICO

CITY           SKY/WX    TMP DP  RH WIND       PRES   REMARKS
CUERNAVACA     MOSUNNY   73  43  33 CALM      30.16F
MEXICO CITY    SUNNY     68  36  30 CALM      30.26F
MORELIA        PTSUNNY   64  43  45 S12       30.23
POZA RICA      PTSUNNY   75  63  64 CALM      29.98F
PUEBLA         MOSUNNY   63  37  39 S12       30.29F
QUERETARO      PTSUNNY   64  45  48 W7        30.24F
S. LUIS POTOSI PTSUNNY   66  36  32 SW16      30.17F
TAMPICO        MOSUNNY   75  61  60 S7        29.95F
TOLUCA         PTSUNNY   63  32  31 SE7       30.33F

SOUTHERN MEXICO

CITY           SKY/WX    TMP DP  RH WIND       PRES   REMARKS
ACAPULCO       SUNNY     86  66  51 S6        29.94F
B. DE HUATULCO MOSUNNY   82  75  78 CALM      29.96
OAXACA         SUNNY     72  43  35 SE5       30.21F
P. ESCONDIDO   MOSUNNY   86  66  51 W9        30.05S
VERACRUZ       SUNNY     77  63  61 NE6       29.95F
ZIHUATANEJO    PTSUNNY   90  66  45 SW7       29.95F HX  92

YUCATAN PENINSULA

CITY           SKY/WX    TMP DP  RH WIND       PRES   REMARKS
CAMPECHE       MOSUNNY   84  70  61 SE12G23   29.94F
CANCUN         MOSUNNY   82  64  54 S16       30.04F
CHETUMAL       MOSUNNY   81  72  74 E14       30.00F
CD. DEL CARMEN SUNNY     81  66  61 SE17      29.94
COZUMEL        MOSUNNY   77  66  69 SE14      30.05F
MERIDA         MOSUNNY   86  64  48 SE15      29.99F
MINATITLAN     MOSUNNY   79  68  69 CALM      29.89
TAPACHULA      SUNNY     88  70  55 CALM      29.91F HX  92
TUX. GUTIERREZ SUNNY     79  57  47 NE9       29.99F
VILLAHERMOSA   MOSUNNY   79  70  73 NE8       29.94F

CENTRAL AMERICA

CITY           SKY/WX    TMP DP  RH WIND       PRES   REMARKS
BELIZE CITY    PTSUNNY   82  72  69 E8        30.00F
MANAGUA        PTCLDY    86  72  62 NE12      29.89F HX  92

CARIBBEAN

CITY           SKY/WX    TMP DP  RH WIND       PRES   REMARKS
ARUBA          MOSUNNY   88  73  62 E23       29.89F HX  96
KINGSTON       MOSUNNY   88  70  55 SW6       29.97F HX  92
NASSAU         MOSUNNY   77  61  57 E16       30.15F
SAN JUAN       MOSUNNY   81  68  65 NE17      30.08F
SANTO DOMINGO  LGT RAIN  73  73 100 CALM        N/A
ST. KITTS      PTSUNNY   79  72  78 N14       30.03F
ST. MAARTEN    PTSUNNY   81  66  61 NE15      30.03F
ST. THOMAS     MOSUNNY   82  68  61 NE18      30.06F

$$



USA.gov is the U.S. government's official web portal to all federal, state and local government web resources and services.